Location: Pedholt
(56.0260°N, 10.2097°E)
Time: 06:04:40
(UTC+00:00)

Transit 2A Rocket - Pass Details

Date: 02 August 2021
Orbit: 586 x 917 km, 66.7° (Epoch: 24 September)

Event Time Altitude Azimuth Distance (km) Brightness Sun altitude
Rises 18:18:47 0° 302° (WNW) 3,085 10.2 7.3°
Reaches altitude 10° 18:21:21 10° 315° (NW) 2,222 8.9 7.0°
Maximum altitude 18:25:45 28° 14° (NNE) 1,410 6.6 6.4°
Drops below altitude 10° 18:30:30 10° 74° (ENE) 2,413 7.2 5.8°
Sets 18:33:24 0° 85° (E) 3,400 7.8 5.4°
